DW9605 Weather Reports


time (UTC)temp
F
wind
direction
speed
knots
gust
knots
rain 1hr
in
rain 24hr
in
rain mn
in
humidity
%
barometer
mb
20260503020054 64 360 0.0 0.0 0.00 0.00 0.00 35 1012.0
20260503014619 64 360 0.0 0.0 0.00 0.00 0.00 35 1012.0
20260503013047 64 360 0.0 1.7 0.00 0.00 0.00 35 1012.1
20260503011555 65 360 0.9 3.5 0.00 0.00 0.00 34 1012.2
20260503010052 65 360 2.6 4.3 0.00 0.00 0.00 33 1012.3
20260503004557 67 360 2.6 6.1 0.00 0.00 0.00 33 1012.3
20260503003043 66 360 0.9 3.5 0.00 0.00 0.00 34 1012.4
20260503001541 66 360 4.3 7.0 0.00 0.00 0.00 34 1012.6
20260503000042 66 360 2.6 5.2 0.00 0.00 0.00 33 1012.6
20260502234544 66 360 2.6 5.2 0.00 0.00 0.00 33 1012.8
20260502233044 67 360 0.9 6.1 0.00 0.00 0.00 33 1012.9
20260502231539 66 360 1.7 6.1 0.00 0.00 0.00 34 1013.0
20260502230034 67 360 1.7 5.2 0.00 0.00 0.00 33 1013.2
20260502224535 67 360 1.7 8.7 0.00 0.00 0.00 34 1013.5
20260502223038 67 360 6.1 9.6 0.00 0.00 0.00 33 1013.4
20260502221532 67 360 2.6 7.0 0.00 0.00 0.00 34 1013.7
20260502220030 66 360 2.6 4.3 0.00 0.00 0.00 34 1014.0
20260502214532 65 360 0.9 5.2 0.00 0.00 0.00 35 1014.1
20260502213030 65 360 1.7 6.1 0.00 0.00 0.00 35 1014.4
20260502211538 65 360 2.6 8.7 0.00 0.00 0.00 37 1014.6
20260502210034 64 360 2.6 10.4 0.00 0.00 0.00 38 1014.8
20260502204530 65 360 2.6 7.8 0.00 0.00 0.00 36 1014.8
20260502203026 65 360 2.6 9.6 0.00 0.00 0.00 35 1014.9
20260502201527 65 360 1.7 6.1 0.00 0.00 0.00 36 1015.1
20260502200027 65 360 1.7 4.3 0.00 0.00 0.00 36 1015.3
20260502194527 64 360 2.6 7.8 0.00 0.00 0.00 37 1015.4
20260502193026 64 360 4.3 7.0 0.00 0.00 0.00 37 1015.5
20260502191526 65 360 5.2 7.8 0.00 0.00 0.00 35 1015.8
20260502190032 64 360 0.9 5.2 0.00 0.00 0.00 36 1015.9
20260502184543 64 360 2.6 10.4 0.00 0.00 0.00 37 1016.0
20260502183038 65 360 3.5 10.4 0.00 0.00 0.00 36 1016.1
20260502181534 65 360 3.5 9.6 0.00 0.00 0.00 35 1016.1
20260502163017 61 360 4.3 7.8 0.00 0.00 0.00 40 1016.8
20260502161508 60 360 2.6 6.1 0.00 0.00 0.00 41 1016.9
20260502151603 56 360 2.6 7.8 0.00 0.00 0.00 48 1017.0
20260502123024 47 360 6.1 10.4 0.00 0.00 0.00 55 1015.9
20260502121520 45 360 4.3 6.1 0.00 0.00 0.00 57 1016.0
20260502114516 43 360 5.2 8.7 0.00 0.00 0.00 62 1015.7
20260502113014 41 360 5.2 9.6 0.00 0.00 0.00 53 1015.7
20260502111510 42 360 0.9 3.5 0.00 0.00 0.00 54 1015.3
20260502110009 43 360 0.9 3.5 0.00 0.00 0.00 52 1015.0
20260502104506 44 360 0.9 3.5 0.00 0.00 0.00 51 1014.8
20260502103005 43 360 0.9 4.3 0.00 0.00 0.00 49 1014.8
20260502101510 42 360 2.6 3.5 0.00 0.00 0.00 49 1014.6
20260502090112 45 360 2.6 7.0 0.00 0.00 0.00 44 1013.6
20260502080105 43 360 2.6 5.2 0.00 0.00 0.00 44 1013.5
20260502070057 44 360 0.9 4.3 0.00 0.00 0.00 42 1013.4
20260502064548 46 360 1.7 3.5 0.00 0.00 0.00 40 1013.3
20260502063048 47 360 2.6 3.5 0.00 0.00 0.00 40 1013.4
20260502061540 48 360 2.6 3.5 0.00 0.00 0.00 38 1013.4
20260502060041 49 360 1.7 3.5 0.00 0.00 0.00 37 1013.3
20260502054543 49 360 2.6 3.5 0.00 0.00 0.00 36 1013.2
20260502053043 50 360 2.6 4.3 0.00 0.00 0.00 35 1013.2
20260502051600 48 360 2.6 6.1 0.00 0.00 0.00 37 1013.1
20260502050040 50 360 2.6 4.3 0.00 0.00 0.00 33 1013.0
20260502044539 53 360 1.7 5.2 0.00 0.00 0.00 30 1012.9
20260502043039 55 360 2.6 6.1 0.00 0.00 0.00 29 1012.9
20260502041540 55 360 3.5 6.1 0.00 0.00 0.00 28 1012.8
20260502040051 56 360 4.3 7.0 0.00 0.00 0.00 27 1012.8
20260502034538 57 360 4.3 7.8 0.00 0.00 0.00 26 1012.6
20260502033041 58 360 3.5 6.1 0.00 0.00 0.00 24 1012.6
20260502031540 60 360 3.5 5.2 0.00 0.00 0.00 22 1012.4
20260502030037 62 360 1.7 7.0 0.00 0.00 0.00 19 1012.2
20260502024540 65 360 5.2 7.8 0.00 0.00 0.00 18 1012.1
20260502023044 67 360 6.1 10.4 0.00 0.00 0.00 17 1012.0
20260502021536 68 360 7.0 9.6 0.00 0.00 0.00 16 1011.9